Location: Most
(50.5133°N, 13.6207°E)
Time: 22:06:43
(UTC+02:00)

ISS - Pass Details

Date: 20 September 2019
Orbit: 411 x 421 km, 51.6° (Epoch: 17 September)

Event Time Altitude Azimuth Distance (km) Brightness Sun altitude
Rises 21:23:03 0° 235° (SW) 2,337 0.4 -21.2°
Reaches altitude 10° 21:25:10 10° 230° (SW) 1,477 -0.8 -21.4°
Enters shadow 21:26:23 20° 222° (SW) 1,010 -1.7 -21.6°
